This demonstration page uses our WeatherBlox Daily Observations layout. Learn more.

Left ArrowRight Arrow

40.92501, -98.34201

Hourly Observations for June 19, 2015

Temp ( °F °C ) Dew Point ( °F °C ) Humidity (%) Winds ( mph kmh ) Pressure ( in mb ) Visibility ( mi km ) Precip ( " mm )
12:53 am 00:53 Clear 61 16.1 58 14.4 90 90 SE 5 7 30.09 1019 10 16 0.00 0.00
1:53 am 01:53 Clear 61 16.1 58 14.4 90 90 ESE 6 9 30.08 1019 10 16 0.00 0.00
2:53 am 02:53 Clear 59 15 56 13.3 90 90 Calm 30.09 1019 10 16 0.00 0.00
3:53 am 03:53 Clear 58 14.4 56 13.3 93 93 Calm 30.07 1018 10 16 0.00 0.00
4:53 am 04:53 Clear 57 13.9 55 12.8 93 93 Calm 30.05 1018 10 16 0.00 0.00
5:53 am 05:53 Clear 57 13.9 55 12.8 93 93 Calm 30.05 1018 9 14 0.00 0.00
6:40 am 06:40 Mostly Cloudy with Mist and Fog 59 15 57 13.9 93 93 Calm 30.06 1018 6 10 0.00 0.00
6:53 am 06:53 Mostly Cloudy 60 15.6 58 14.4 93 93 Calm 30.07 1018 7 11 0.00 0.00
7:05 am 07:05 Partly Cloudy with Mist and Fog 61 16 59 15 94 94 Calm 30.06 1018 6 10 0.00 0.00
7:53 am 07:53 Sunny 64 17.8 60 15.6 87 87 SSE 6 9 30.04 1017 10 16 0.00 0.00
8:53 am 08:53 Sunny 68 20 62 16.7 81 81 SSE 13 20 30.04 1017 10 16 0.00 0.00
9:16 am 09:16 Mostly Cloudy 69 20.6 61 16.1 76 76 SSE 14 22 30.00 1016 10 16 0.00 0.00
9:31 am 09:31 Partly Cloudy 70 21.1 61 16.1 73 73 SSE 13 20 30.00 1016 10 16 0.00 0.00
9:53 am 09:53 Sunny 71 21.7 61 16.1 71 71 SSE 13 20 30.05 1018 10 16 0.00 0.00
10:53 am 10:53 Partly Cloudy 72 22.2 62 16.7 71 71 S 9 15 30.04 1017 10 16 0.00 0.00
11:53 am 11:53 Partly Cloudy 75 23.9 64 17.8 69 69 SSE 14 22 30.01 1016 10 16 0.00 0.00
12:53 pm 12:53 Partly Cloudy 77 25 65 18.3 66 66 S 14 22 30.00 1016 10 16 0.00 0.00
1:20 pm 13:20 Mostly Cloudy 78 25.6 66 18.9 67 67 S 14 22 29.88 1012 10 16 0.00 0.00
1:41 pm 13:41 Partly Cloudy 78 25.6 66 18.9 67 67 S 14 22 29.88 1012 10 16 0.00 0.00
1:53 pm 13:53 Partly Cloudy 78 25.6 66 18.9 67 67 S 13 20 29.97 1015 10 16 0.00 0.00
2:53 pm 14:53 Mostly Sunny 81 27.2 67 19.4 62 62 S 13 20 29.94 1014 10 16 0.00 0.00
3:53 pm 15:53 Sunny 81 27.2 67 19.4 62 62 SSE 17 28 29.89 1012 10 16 0.00 0.00
4:53 pm 16:53 Sunny 82 27.8 67 19.4 60 60 SSE 20 31 29.86 1011 10 16 0.00 0.00
5:53 pm 17:53 Sunny 82 27.8 67 19.4 60 60 SSE 14 22 29.85 1011 10 16 0.00 0.00
6:53 pm 18:53 Sunny 82 27.8 67 19.4 60 60 SSE 17 28 29.83 1010 10 16 0.00 0.00
7:53 pm 19:53 Sunny 80 26.7 66 18.9 62 62 SSE 13 20 29.83 1010 10 16 0.00 0.00
8:53 pm 20:53 Sunny 78 25.6 66 18.9 67 67 SSE 15 24 29.80 1009 10 16 0.00 0.00
9:53 pm 21:53 Clear 76 24.4 65 18.3 69 69 SSE 13 20 29.79 1009 10 16 0.00 0.00
10:53 pm 22:53 Clear 75 23.9 65 18.3 71 71 SSE 15 24 29.79 1009 10 16 0.00 0.00
11:53 pm 23:53 Clear 74 23.3 65 18.3 74 74 SSE 17 28 29.77 1008 10 16 0.00 0.00

Powered by AerisWeather